| time (UTC) | temp C | wind direction | speed KPH | gust KPH | rain 1hr cm | rain 24hr cm | rain mn cm | humidity % | barometer mb |
| 20260502130114 | 25 | 159 | 3.2 | 11.3 | 0.00 | 0.46 | 0.00 | 48 | 1014.8 |
| 20260502123613 | 24 | 115 | 3.2 | 16.1 | 0.00 | 0.46 | 0.00 | 51 | 1015.0 |
| 20260502123114 | 25 | 139 | 3.2 | 14.5 | 0.00 | 0.46 | 0.00 | 51 | 1015.0 |
| 20260502122614 | 25 | 171 | 4.8 | 16.1 | 0.00 | 0.46 | 0.00 | 51 | 1015.2 |
| 20260502122114 | 25 | 132 | 8.0 | 19.3 | 0.00 | 0.46 | 0.00 | 52 | 1015.2 |
| 20260502121614 | 24 | 173 | 3.2 | 11.3 | 0.00 | 0.46 | 0.00 | 53 | 1015.2 |
| 20260502121114 | 25 | 132 | 4.8 | 14.5 | 0.00 | 0.46 | 0.00 | 52 | 1015.3 |
| 20260502120614 | 25 | 155 | 1.6 | 9.7 | 0.00 | 0.46 | 0.00 | 55 | 1015.3 |
| 20260502115614 | 23 | 116 | 1.6 | 9.7 | 0.00 | 0.46 | 0.00 | 57 | 1015.3 |
| 20260502115114 | 23 | 129 | 0.0 | 4.8 | 0.00 | 0.46 | 0.00 | 58 | 1015.4 |
| 20260502114614 | 23 | 99 | 1.6 | 4.8 | 0.00 | 0.46 | 0.00 | 58 | 1015.5 |
| 20260502114114 | 23 | 135 | 0.0 | 12.9 | 0.00 | 0.46 | 0.00 | 55 | 1015.5 |
| 20260502113115 | 23 | 162 | 1.6 | 9.7 | 0.00 | 0.46 | 0.00 | 57 | 1015.7 |
| 20260502112615 | 23 | 141 | 1.6 | 4.8 | 0.00 | 0.46 | 0.00 | 58 | 1015.8 |
| 20260502112114 | 24 | 112 | 3.2 | 12.9 | 0.00 | 0.46 | 0.00 | 56 | 1015.9 |
| 20260502111114 | 25 | 180 | 0.0 | 8.0 | 0.00 | 0.46 | 0.00 | 57 | 1016.0 |
| 20260502110614 | 23 | 184 | 0.0 | 0.0 | 0.00 | 0.46 | 0.00 | 61 | 1016.1 |
| 20260502105114 | 24 | 191 | 3.2 | 14.5 | 0.00 | 0.46 | 0.00 | 59 | 1016.4 |
| 20260502104614 | 23 | 155 | 1.6 | 9.7 | 0.00 | 0.46 | 0.00 | 60 | 1016.4 |
| 20260502104113 | 23 | 93 | 0.0 | 8.0 | 0.00 | 0.46 | 0.00 | 62 | 1016.5 |
| 20260502103614 | 23 | 176 | 1.6 | 9.7 | 0.00 | 0.46 | 0.00 | 62 | 1016.5 |
| 20260502103114 | 23 | 122 | 3.2 | 12.9 | 0.00 | 0.46 | 0.00 | 62 | 1016.4 |
| 20260502102614 | 23 | 152 | 1.6 | 4.8 | 0.00 | 0.46 | 0.00 | 59 | 1016.6 |
| 20260502102115 | 23 | 99 | 1.6 | 8.0 | 0.00 | 0.46 | 0.00 | 61 | 1016.6 |
| 20260502101115 | 23 | 180 | 1.6 | 8.0 | 0.00 | 0.46 | 0.00 | 62 | 1016.7 |
| 20260502100114 | 22 | 153 | 0.0 | 4.8 | 0.00 | 0.46 | 0.00 | 62 | 1016.9 |
| 20260502091115 | 21 | 142 | 1.6 | 4.8 | 0.00 | 0.46 | 0.00 | 69 | 1017.4 |
| 20260502090614 | 21 | 169 | 0.0 | 3.2 | 0.00 | 0.46 | 0.00 | 69 | 1017.5 |
| 20260502090114 | 21 | 170 | 0.0 | 0.0 | 0.00 | 0.46 | 0.00 | 70 | 1017.5 |
| 20260502071114 | 16 | 167 | 0.0 | 0.0 | 0.00 | 0.46 | 0.00 | 85 | 1018.0 |
| 20260502070614 | 16 | 167 | 0.0 | 0.0 | 0.00 | 0.46 | 0.00 | 85 | 1018.1 |
| 20260502070114 | 16 | 168 | 0.0 | 0.0 | 0.00 | 0.46 | 0.00 | 86 | 1018.2 |
| 20260502065615 | 16 | 168 | 0.0 | 0.0 | 0.00 | 0.46 | 0.00 | 86 | 1018.1 |
| 20260502064614 | 15 | 167 | 0.0 | 0.0 | 0.00 | 0.46 | 0.00 | 88 | 1018.1 |
| 20260502064113 | 15 | 168 | 0.0 | 0.0 | 0.00 | 0.46 | 0.00 | 88 | 1018.0 |
| 20260502063614 | 15 | 168 | 0.0 | 0.0 | 0.00 | 0.46 | 0.00 | 88 | 1017.9 |
| 20260502063114 | 15 | 167 | 0.0 | 0.0 | 0.00 | 0.46 | 0.00 | 87 | 1018.0 |
| 20260502062615 | 15 | 166 | 0.0 | 0.0 | 0.00 | 0.46 | 0.00 | 88 | 1017.9 |
| 20260502061614 | 15 | 168 | 0.0 | 0.0 | 0.00 | 0.46 | 0.00 | 89 | 1018.0 |
| 20260502061115 | 15 | 168 | 0.0 | 0.0 | 0.00 | 0.46 | 0.00 | 89 | 1018.0 |
| 20260502060614 | 15 | 168 | 0.0 | 0.0 | 0.00 | 0.46 | 0.00 | 89 | 1018.0 |
| 20260502060115 | 14 | 168 | 0.0 | 0.0 | 0.00 | 0.46 | 0.00 | 89 | 1018.1 |
| 20260502055614 | 14 | 167 | 0.0 | 0.0 | 0.00 | 0.46 | 0.00 | 89 | 1018.3 |
| 20260502054614 | 14 | 168 | 0.0 | 0.0 | 0.00 | 0.46 | 0.00 | 89 | 1018.3 |
| 20260502054114 | 14 | 167 | 0.0 | 0.0 | 0.00 | 0.46 | 0.00 | 90 | 1018.3 |
| 20260502053614 | 14 | 168 | 0.0 | 0.0 | 0.00 | 0.46 | 0.00 | 90 | 1018.1 |
| 20260502052614 | 13 | 168 | 0.0 | 0.0 | 0.00 | 0.46 | 0.00 | 90 | 1018.0 |
| 20260502051614 | 13 | 167 | 0.0 | 0.0 | 0.00 | 0.46 | 0.00 | 89 | 1018.0 |
| 20260502051114 | 13 | 168 | 0.0 | 0.0 | 0.00 | 0.46 | 0.00 | 89 | 1018.0 |
| 20260502050115 | 13 | 168 | 0.0 | 0.0 | 0.00 | 0.46 | 0.00 | 88 | 1018.0 |
| 20260502045614 | 13 | 168 | 0.0 | 0.0 | 0.00 | 0.46 | 0.00 | 88 | 1017.9 |
| 20260502045114 | 13 | 168 | 0.0 | 0.0 | 0.00 | 0.46 | 0.00 | 89 | 1017.9 |
| 20260502044614 | 13 | 168 | 0.0 | 0.0 | 0.00 | 0.46 | 0.00 | 88 | 1018.0 |
| 20260502043614 | 13 | 168 | 0.0 | 0.0 | 0.00 | 0.46 | 0.00 | 89 | 1018.1 |
| 20260502043114 | 13 | 168 | 0.0 | 0.0 | 0.00 | 0.46 | 0.00 | 89 | 1018.2 |
| 20260502042614 | 13 | 168 | 0.0 | 0.0 | 0.00 | 0.46 | 0.00 | 88 | 1018.2 |
| 20260502042114 | 13 | 168 | 0.0 | 0.0 | 0.00 | 0.46 | 0.00 | 88 | 1018.0 |
| 20260502041614 | 13 | 168 | 0.0 | 0.0 | 0.00 | 0.46 | 0.00 | 88 | 1018.2 |
| 20260502041114 | 13 | 168 | 0.0 | 0.0 | 0.00 | 0.46 | 0.00 | 88 | 1018.0 |
| 20260502040614 | 13 | 167 | 0.0 | 0.0 | 0.00 | 0.46 | 0.00 | 88 | 1018.1 |
| 20260502040115 | 13 | 168 | 0.0 | 0.0 | 0.00 | 0.46 | 0.00 | 88 | 1018.1 |
| 20260502035614 | 13 | 168 | 0.0 | 0.0 | 0.00 | 0.46 | 0.00 | 88 | 1018.0 |
| 20260502035114 | 13 | 168 | 0.0 | 0.0 | 0.00 | 0.46 | 0.00 | 88 | 1018.0 |
| 20260502034614 | 13 | 168 | 0.0 | 0.0 | 0.00 | 0.46 | 0.00 | 88 | 1018.0 |
| 20260502034114 | 13 | 168 | 0.0 | 3.2 | 0.00 | 0.46 | 0.00 | 88 | 1018.0 |
| 20260502033614 | 13 | 168 | 1.6 | 8.0 | 0.00 | 0.46 | 0.00 | 88 | 1018.1 |
| 20260502033114 | 13 | 167 | 4.8 | 14.5 | 0.00 | 0.46 | 0.00 | 88 | 1018.1 |
| 20260502032114 | 14 | 170 | 3.2 | 8.0 | 0.00 | 0.46 | 0.00 | 88 | 1018.2 |
| 20260502031615 | 14 | 171 | 0.0 | 0.0 | 0.00 | 0.46 | 0.00 | 88 | 1018.2 |
| 20260502031114 | 14 | 169 | 0.0 | 0.0 | 0.00 | 0.46 | 0.00 | 87 | 1018.2 |
| 20260502030614 | 14 | 171 | 0.0 | 0.0 | 0.00 | 0.46 | 0.00 | 87 | 1018.2 |
| 20260502030116 | 14 | 171 | 0.0 | 0.0 | 0.00 | 0.46 | 0.00 | 87 | 1018.2 |
| 20260502025615 | 14 | 170 | 0.0 | 0.0 | 0.00 | 0.46 | 0.00 | 88 | 1018.3 |
| 20260502025114 | 14 | 169 | 0.0 | 0.0 | 0.00 | 0.46 | 0.00 | 87 | 1018.3 |
| 20260502024614 | 14 | 171 | 0.0 | 0.0 | 0.00 | 0.46 | 0.00 | 88 | 1018.3 |
| 20260502024114 | 14 | 170 | 0.0 | 0.0 | 0.00 | 0.46 | 0.00 | 87 | 1018.5 |
| 20260502023114 | 14 | 171 | 0.0 | 0.0 | 0.00 | 0.46 | 0.00 | 87 | 1018.6 |
| 20260502022615 | 14 | 171 | 0.0 | 0.0 | 0.00 | 0.46 | 0.00 | 87 | 1018.6 |
| 20260502022114 | 14 | 170 | 0.0 | 0.0 | 0.00 | 0.46 | 0.00 | 87 | 1018.7 |
| 20260502021614 | 14 | 170 | 0.0 | 0.0 | 0.00 | 0.46 | 0.00 | 87 | 1018.8 |
| 20260502021115 | 14 | 171 | 0.0 | 0.0 | 0.00 | 0.46 | 0.00 | 87 | 1018.8 |
| 20260502020614 | 14 | 171 | 0.0 | 0.0 | 0.00 | 0.46 | 0.00 | 86 | 1018.8 |
| 20260502020114 | 14 | 169 | 0.0 | 0.0 | 0.00 | 0.46 | 0.00 | 86 | 1018.8 |
| 20260502015614 | 14 | 171 | 0.0 | 0.0 | 0.00 | 0.46 | 0.00 | 86 | 1018.9 |
| 20260502015114 | 14 | 171 | 0.0 | 0.0 | 0.00 | 0.46 | 0.00 | 86 | 1018.9 |
| 20260502014115 | 14 | 169 | 0.0 | 0.0 | 0.00 | 0.46 | 0.00 | 86 | 1018.8 |
| 20260502013614 | 14 | 169 | 0.0 | 0.0 | 0.00 | 0.46 | 0.00 | 85 | 1018.8 |
| 20260502013115 | 15 | 169 | 0.0 | 0.0 | 0.00 | 0.46 | 0.00 | 85 | 1018.8 |
| 20260502012115 | 15 | 168 | 0.0 | 3.2 | 0.00 | 0.46 | 0.00 | 85 | 1018.8 |
| 20260502011615 | 15 | 169 | 1.6 | 11.3 | 0.00 | 0.46 | 0.00 | 85 | 1018.9 |
| 20260502010616 | 15 | 169 | 3.2 | 14.5 | 0.00 | 0.46 | 0.00 | 85 | 1018.9 |
| 20260502010116 | 15 | 159 | 6.4 | 12.9 | 0.00 | 0.46 | 0.00 | 84 | 1018.9 |
| 20260502005115 | 15 | 164 | 6.4 | 12.9 | 0.00 | 0.46 | 0.00 | 84 | 1019.0 |
| 20260502004614 | 15 | 166 | 3.2 | 14.5 | 0.00 | 0.46 | 0.00 | 84 | 1018.9 |
| 20260502004114 | 15 | 144 | 3.2 | 12.9 | 0.00 | 0.46 | 0.00 | 84 | 1018.8 |
| 20260502003614 | 15 | 179 | 1.6 | 9.7 | 0.00 | 0.46 | 0.00 | 84 | 1018.9 |
| 20260502003114 | 15 | 158 | 4.8 | 9.7 | 0.00 | 0.46 | 0.00 | 84 | 1018.9 |
| 20260502002614 | 15 | 154 | 1.6 | 4.8 | 0.00 | 0.46 | 0.00 | 83 | 1018.9 |
| 20260502002114 | 15 | 168 | 3.2 | 12.9 | 0.00 | 0.46 | 0.00 | 83 | 1018.9 |
| 20260502000614 | 15 | 168 | 4.8 | 11.3 | 0.00 | 0.46 | 0.00 | 83 | 1019.0 |
| 20260502000115 | 15 | 168 | 1.6 | 9.7 | 0.00 | 0.46 | 0.00 | 83 | 1019.1 |
| 20260501235614 | 15 | 155 | 1.6 | 8.0 | 0.00 | 0.46 | 0.00 | 83 | 1019.2 |
| 20260501234114 | 16 | 163 | 6.4 | 11.3 | 0.00 | 0.46 | 0.00 | 83 | 1019.3 |
| 20260501233615 | 16 | 153 | 6.4 | 11.3 | 0.00 | 0.46 | 0.00 | 82 | 1019.3 |
| 20260501232616 | 16 | 157 | 3.2 | 9.7 | 0.00 | 0.46 | 0.00 | 83 | 1019.3 |
| 20260501232114 | 16 | 148 | 0.0 | 0.0 | 0.00 | 0.46 | 0.00 | 83 | 1019.3 |
| 20260501231615 | 16 | 147 | 1.6 | 9.7 | 0.00 | 0.46 | 0.00 | 83 | 1019.3 |
| 20260501231114 | 16 | 143 | 0.0 | 4.8 | 0.00 | 0.46 | 0.00 | 83 | 1019.4 |
| 20260501230614 | 16 | 150 | 1.6 | 8.0 | 0.00 | 0.46 | 0.00 | 84 | 1019.4 |
| 20260501230114 | 16 | 147 | 0.0 | 4.8 | 0.00 | 0.46 | 0.00 | 84 | 1019.4 |
| 20260501224614 | 16 | 122 | 0.0 | 4.8 | 0.00 | 0.46 | 0.00 | 85 | 1019.4 |
| 20260501224114 | 16 | 131 | 1.6 | 8.0 | 0.00 | 0.46 | 0.00 | 84 | 1019.4 |
| 20260501223614 | 16 | 100 | 0.0 | 0.0 | 0.00 | 0.46 | 0.00 | 85 | 1019.4 |
| 20260501223114 | 16 | 99 | 0.0 | 0.0 | 0.08 | 0.46 | 0.00 | 85 | 1019.5 |
| 20260501222615 | 16 | 99 | 0.0 | 0.0 | 0.15 | 0.46 | 0.00 | 85 | 1019.4 |
| 20260501222115 | 16 | 100 | 0.0 | 8.0 | 0.15 | 0.46 | 0.00 | 85 | 1019.3 |
| 20260501221614 | 16 | 121 | 1.6 | 8.0 | 0.15 | 0.46 | 0.00 | 85 | 1019.2 |
| 20260501221115 | 16 | 127 | 3.2 | 11.3 | 0.15 | 0.46 | 0.00 | 85 | 1019.3 |
| 20260501220116 | 16 | 149 | 3.2 | 11.3 | 0.15 | 0.46 | 0.00 | 84 | 1019.5 |
| 20260501215114 | 16 | 136 | 3.2 | 9.7 | 0.15 | 0.46 | 0.46 | 85 | 1019.5 |
| 20260501214112 | 16 | 135 | 4.8 | 12.9 | 0.15 | 0.46 | 0.46 | 85 | 1019.6 |
| 20260501213113 | 16 | 151 | 3.2 | 11.3 | 0.13 | 0.43 | 0.43 | 84 | 1019.7 |
| 20260501212612 | 16 | 154 | 4.8 | 9.7 | 0.03 | 0.33 | 0.33 | 83 | 1019.8 |
| 20260501212113 | 17 | 157 | 0.0 | 8.0 | 0.00 | 0.33 | 0.33 | 83 | 1019.8 |
| 20260501211613 | 17 | 154 | 0.0 | 0.0 | 0.00 | 0.33 | 0.33 | 83 | 1019.8 |
| 20260501211113 | 17 | 155 | 0.0 | 0.0 | 0.00 | 0.33 | 0.33 | 84 | 1019.7 |
| 20260501210612 | 16 | 156 | 0.0 | 0.0 | 0.00 | 0.33 | 0.33 | 83 | 1019.7 |
| 20260501210113 | 16 | 155 | 0.0 | 0.0 | 0.00 | 0.33 | 0.33 | 83 | 1019.8 |
| 20260501205612 | 17 | 155 | 0.0 | 0.0 | 0.00 | 0.33 | 0.33 | 83 | 1019.8 |
| 20260501205112 | 17 | 156 | 0.0 | 0.0 | 0.00 | 0.33 | 0.33 | 84 | 1019.8 |
| 20260501204612 | 17 | 156 | 0.0 | 0.0 | 0.00 | 0.33 | 0.33 | 84 | 1019.8 |
| 20260501204113 | 16 | 153 | 0.0 | 0.0 | 0.00 | 0.33 | 0.33 | 84 | 1019.8 |
| 20260501203612 | 16 | 155 | 0.0 | 1.6 | 0.00 | 0.33 | 0.33 | 84 | 1019.9 |
| 20260501203113 | 16 | 155 | 0.0 | 3.2 | 0.00 | 0.33 | 0.33 | 84 | 1019.9 |
| 20260501202612 | 16 | 127 | 0.0 | 8.0 | 0.00 | 0.33 | 0.33 | 84 | 1019.8 |
| 20260501202113 | 16 | 126 | 1.6 | 4.8 | 0.00 | 0.33 | 0.33 | 84 | 1019.7 |
| 20260501200612 | 17 | 193 | 0.0 | 0.0 | 0.00 | 0.33 | 0.33 | 83 | 1019.8 |
| 20260501195613 | 17 | 197 | 0.0 | 0.0 | 0.00 | 0.33 | 0.33 | 83 | 1019.5 |
| 20260501194612 | 17 | 196 | 0.0 | 3.2 | 0.00 | 0.33 | 0.33 | 83 | 1019.4 |
| 20260501193612 | 17 | 127 | 0.0 | 0.0 | 0.00 | 0.33 | 0.33 | 82 | 1019.2 |
| 20260501193113 | 17 | 125 | 0.0 | 0.0 | 0.00 | 0.33 | 0.33 | 83 | 1019.1 |
| 20260501192613 | 17 | 125 | 0.0 | 0.0 | 0.00 | 0.33 | 0.33 | 84 | 1019.0 |
| 20260501192112 | 17 | 127 | 0.0 | 0.0 | 0.05 | 0.33 | 0.33 | 84 | 1019.0 |
| 20260501191613 | 17 | 127 | 0.0 | 0.0 | 0.13 | 0.33 | 0.33 | 83 | 1019.0 |
| 20260501191113 | 17 | 126 | 0.0 | 0.0 | 0.15 | 0.33 | 0.33 | 82 | 1019.0 |
| 20260501190612 | 17 | 126 | 0.0 | 0.0 | 0.15 | 0.33 | 0.33 | 82 | 1019.1 |
| 20260501190112 | 17 | 131 | 0.0 | 0.0 | 0.15 | 0.33 | 0.33 | 83 | 1019.2 |
| 20260501185613 | 16 | 130 | 0.0 | 0.0 | 0.15 | 0.33 | 0.33 | 82 | 1019.1 |
| 20260501185112 | 17 | 122 | 0.0 | 0.0 | 0.15 | 0.33 | 0.33 | 82 | 1019.2 |
| 20260501184612 | 17 | 114 | 0.0 | 3.2 | 0.25 | 0.33 | 0.33 | 81 | 1019.2 |
| 20260501184113 | 17 | 70 | 1.6 | 8.0 | 0.33 | 0.33 | 0.33 | 81 | 1019.2 |
| 20260501183613 | 17 | 197 | 0.0 | 3.2 | 0.33 | 0.33 | 0.33 | 80 | 1019.2 |
| 20260501183112 | 17 | 197 | 0.0 | 0.0 | 0.33 | 0.33 | 0.33 | 80 | 1019.3 |
| 20260501182612 | 17 | 198 | 0.0 | 1.6 | 0.33 | 0.33 | 0.33 | 79 | 1019.6 |
| 20260501182113 | 17 | 198 | 3.2 | 4.8 | 0.28 | 0.28 | 0.28 | 78 | 1019.6 |
| 20260501181612 | 17 | 215 | 1.6 | 4.8 | 0.20 | 0.20 | 0.20 | 75 | 1019.5 |
| 20260501180112 | 18 | 210 | 1.6 | 8.0 | 0.15 | 0.15 | 0.15 | 76 | 1019.4 |
| 20260501175612 | 19 | 206 | 4.8 | 19.3 | 0.15 | 0.15 | 0.15 | 73 | 1019.3 |
| 20260501175113 | 21 | 204 | 6.4 | 20.9 | 0.15 | 0.15 | 0.15 | 69 | 1019.2 |
| 20260501174612 | 22 | 181 | 9.7 | 19.3 | 0.05 | 0.05 | 0.05 | 61 | 1019.1 |
| 20260501172612 | 23 | 151 | 0.0 | 0.0 | 0.00 | 0.00 | 0.00 | 51 | 1018.1 |
| 20260501172112 | 23 | 151 | 0.0 | 0.0 | 0.00 | 0.00 | 0.00 | 50 | 1018.2 |
| 20260501171612 | 23 | 151 | 0.0 | 0.0 | 0.00 | 0.00 | 0.00 | 50 | 1018.2 |
| 20260501171113 | 23 | 151 | 0.0 | 0.0 | 0.00 | 0.00 | 0.00 | 49 | 1018.3 |
| 20260501170612 | 23 | 148 | 0.0 | 3.2 | 0.00 | 0.00 | 0.00 | 49 | 1018.4 |
| 20260501165613 | 24 | 148 | 0.0 | 0.0 | 0.00 | 0.00 | 0.00 | 49 | 1018.2 |
| 20260501165112 | 24 | 148 | 0.0 | 0.0 | 0.00 | 0.00 | 0.00 | 48 | 1018.1 |
| 20260501164613 | 24 | 147 | 0.0 | 3.2 | 0.00 | 0.00 | 0.00 | 48 | 1018.1 |
| 20260501164113 | 25 | 148 | 0.0 | 0.0 | 0.00 | 0.00 | 0.00 | 47 | 1018.1 |
| 20260501163613 | 25 | 148 | 1.6 | 4.8 | 0.00 | 0.00 | 0.00 | 47 | 1018.1 |
| 20260501163112 | 25 | 156 | 0.0 | 3.2 | 0.00 | 0.00 | 0.00 | 47 | 1018.2 |
| 20260501162612 | 25 | 159 | 0.0 | 0.0 | 0.00 | 0.00 | 0.00 | 46 | 1018.3 |
| 20260501162113 | 25 | 159 | 0.0 | 4.8 | 0.00 | 0.00 | 0.00 | 46 | 1018.3 |
| 20260501161614 | 25 | 160 | 1.6 | 4.8 | 0.00 | 0.00 | 0.00 | 46 | 1018.3 |
| 20260501161112 | 25 | 157 | 1.6 | 8.0 | 0.00 | 0.00 | 0.00 | 46 | 1018.4 |
| 20260501160612 | 25 | 157 | 1.6 | 8.0 | 0.00 | 0.00 | 0.00 | 45 | 1018.4 |
| 20260501160113 | 25 | 167 | 1.6 | 9.7 | 0.00 | 0.00 | 0.00 | 46 | 1018.5 |
| 20260501155612 | 25 | 152 | 1.6 | 8.0 | 0.00 | 0.00 | 0.00 | 46 | 1018.5 |
| 20260501155113 | 25 | 156 | 0.0 | 4.8 | 0.00 | 0.00 | 0.00 | 46 | 1018.5 |
| 20260501154613 | 25 | 155 | 0.0 | 0.0 | 0.00 | 0.00 | 0.00 | 46 | 1018.6 |
| 20260501154114 | 25 | 155 | 0.0 | 0.0 | 0.00 | 0.00 | 0.00 | 46 | 1018.6 |
| 20260501153613 | 25 | 155 | 0.0 | 0.0 | 0.00 | 0.00 | 0.00 | 45 | 1018.7 |
| 20260501153113 | 25 | 155 | 0.0 | 3.2 | 0.00 | 0.00 | 0.00 | 46 | 1018.8 |
| 20260501152612 | 25 | 154 | 0.0 | 0.0 | 0.00 | 0.00 | 0.00 | 46 | 1018.8 |
| 20260501152113 | 25 | 153 | 0.0 | 3.2 | 0.00 | 0.00 | 0.00 | 46 | 1018.9 |
| 20260501151113 | 25 | 153 | 0.0 | 3.2 | 0.00 | 0.00 | 0.00 | 45 | 1019.0 |
| 20260501150613 | 25 | 154 | 0.0 | 9.7 | 0.00 | 0.00 | 0.00 | 45 | 1019.0 |
| 20260501150113 | 25 | 140 | 0.0 | 4.8 | 0.00 | 0.00 | 0.00 | 45 | 1019.1 |
| 20260501145619 | 26 | 126 | 0.0 | 3.2 | 0.00 | 0.00 | 0.00 | 44 | 1019.0 |
| 20260501145113 | 26 | 126 | 0.0 | 4.8 | 0.00 | 0.00 | 0.00 | 44 | 1019.2 |
| 20260501144612 | 26 | 157 | 3.2 | 8.0 | 0.00 | 0.00 | 0.00 | 44 | 1019.2 |
| 20260501144113 | 26 | 185 | 0.0 | 8.0 | 0.00 | 0.00 | 0.00 | 44 | 1019.2 |
| 20260501143613 | 25 | 185 | 0.0 | 4.8 | 0.00 | 0.00 | 0.00 | 45 | 1019.3 |
| 20260501143112 | 25 | 187 | 1.6 | 9.7 | 0.00 | 0.00 | 0.00 | 45 | 1019.3 |
| 20260501142613 | 25 | 196 | 0.0 | 0.0 | 0.00 | 0.00 | 0.00 | 45 | 1019.3 |
| 20260501141612 | 26 | 151 | 0.0 | 0.0 | 0.00 | 0.00 | 0.00 | 43 | 1019.4 |
| 20260501141112 | 26 | 151 | 0.0 | 9.7 | 0.00 | 0.00 | 0.00 | 42 | 1019.4 |
| 20260501140614 | 26 | 162 | 1.6 | 8.0 | 0.00 | 0.00 | 0.00 | 42 | 1019.4 |
| 20260501140113 | 26 | 216 | 0.0 | 8.0 | 0.00 | 0.00 | 0.00 | 42 | 1019.5 |
| 20260501134612 | 26 | 191 | 4.8 | 14.5 | 0.00 | 0.00 | 0.00 | 43 | 1019.6 |
| 20260501134113 | 26 | 179 | 0.0 | 11.3 | 0.00 | 0.00 | 0.00 | 42 | 1019.7 |
| 20260501133612 | 26 | 173 | 1.6 | 9.7 | 0.00 | 0.00 | 0.00 | 42 | 1019.6 |